ACA1369 MGGT-CYUL

Flight info

Callsign ACA1369
Flight time 4h 43m
Altitude 39000
Route RIDEM UG765 CZM UB881 CUN UM219 MYDIA M219 CIGAR M215 KNOST DCT CAMJO DCT TEEEM Q99 POLYY DCT OGRAE DCT AUDII DCT FAK DCT RBV DCT LLUND DCT CAM DCT JASDU DCT PBERG CARTR5
Aircraft A333/H-SDE3GHIJ2J3J5M1RVWXY/LB2D1

Departure

Time 2026-04-23 22:28
Airport La Aurora International Airport (MGGT)

Arrival

Time 2026-04-24 03:11
Airport Montreal / Pierre Elliott Trudeau International Airport (CYUL)
Time Latitude Longitude Altitude Speed Heading
2026-04-23 22:07 14.58887 -90.52898 4934 ft 0 kts 287°
2026-04-23 22:19 14.58882 -90.52880 4939 ft 4 kts 287°
2026-04-23 22:19 14.58874 -90.52853 4924 ft 4 kts 287°
2026-04-23 22:20 14.58873 -90.52850 4924 ft 3 kts 287°
2026-04-23 22:20 14.58871 -90.52842 4926 ft 4 kts 283°
2026-04-23 22:21 14.58869 -90.52815 4926 ft 4 kts 256°
2026-04-23 22:21 14.58880 -90.52792 4924 ft 4 kts 220°
2026-04-23 22:21 14.58903 -90.52778 4924 ft 4 kts 198°
2026-04-23 22:21 14.58929 -90.52771 4926 ft 4 kts 193°
2026-04-23 22:22 14.58942 -90.52767 4924 ft 0 kts 198°
2026-04-23 22:24 14.58927 -90.52773 4925 ft 5 kts 197°
2026-04-23 22:25 14.58866 -90.52779 4926 ft 11 kts 173°
2026-04-23 22:25 14.58791 -90.52720 4928 ft 18 kts 116°
2026-04-23 22:25 14.58789 -90.52606 4930 ft 17 kts 44°
2026-04-23 22:25 14.58932 -90.52556 4931 ft 23 kts 15°
2026-04-23 22:26 14.59095 -90.52501 4941 ft 25 kts 18°
2026-04-23 22:26 14.59269 -90.52443 4947 ft 27 kts 18°
2026-04-23 22:26 14.59441 -90.52389 4953 ft 25 kts 18°
2026-04-23 22:26 14.59559 -90.52382 4951 ft 8 kts 349°
2026-04-23 22:27 14.59567 -90.52361 4954 ft 5 kts 116°
2026-04-23 22:27 14.59529 -90.52362 4953 ft 3 kts 199°
2026-04-23 22:27 14.59514 -90.52367 4953 ft 15 kts 199°
2026-04-23 22:27 14.59226 -90.52460 4943 ft 73 kts 197°
2026-04-23 22:28 14.58562 -90.52675 4923 ft 127 kts 197°
2026-04-23 22:28 14.57592 -90.52984 5130 ft 156 kts 197°
2026-04-23 22:28 14.56532 -90.53303 5789 ft 159 kts 195°
2026-04-23 22:28 14.55437 -90.53590 6420 ft 168 kts 195°
2026-04-23 22:29 14.54235 -90.53870 6884 ft 187 kts 193°
2026-04-23 22:29 14.52905 -90.54193 7265 ft 208 kts 192°
2026-04-23 22:29 14.51376 -90.54240 7526 ft 235 kts 171°
2026-04-23 22:29 14.49857 -90.53447 7740 ft 262 kts 136°
2026-04-23 22:30 14.48978 -90.51744 8140 ft 282 kts 101°
2026-04-23 22:30 14.49177 -90.49726 8893 ft 289 kts 67°
2026-04-23 22:30 14.50400 -90.48113 9768 ft 289 kts 35°
2026-04-23 22:30 14.52217 -90.47204 10457 ft 297 kts 19°
2026-04-23 22:31 14.54277 -90.46618 10812 ft 317 kts 14°
2026-04-23 22:31 14.56484 -90.46057 11103 ft 336 kts 15°
2026-04-23 22:31 14.58787 -90.45358 11410 ft 354 kts 18°
2026-04-23 22:31 14.61115 -90.44491 11824 ft 365 kts 21°
2026-04-23 22:32 14.63470 -90.43478 12502 ft 367 kts 23°
2026-04-23 22:32 14.65818 -90.42384 13130 ft 372 kts 24°
2026-04-23 22:32 14.68166 -90.41245 13833 ft 374 kts 24°
2026-04-23 22:32 14.70533 -90.40082 14358 ft 379 kts 24°
2026-04-23 22:33 14.72930 -90.38905 14917 ft 383 kts 25°
2026-04-23 22:33 14.75361 -90.37718 15372 ft 389 kts 24°
2026-04-23 22:33 14.77832 -90.36519 15808 ft 395 kts 24°
2026-04-23 22:33 14.80344 -90.35306 16320 ft 400 kts 23°
2026-04-23 22:34 14.82874 -90.34087 16828 ft 404 kts 24°
2026-04-23 22:34 14.85406 -90.32869 17345 ft 407 kts 24°
2026-04-23 22:34 14.87985 -90.31627 17846 ft 411 kts 24°
2026-04-23 22:34 14.90592 -90.30371 18325 ft 415 kts 23°
2026-04-23 22:35 14.93223 -90.29101 18735 ft 419 kts 23°
2026-04-23 22:35 14.95860 -90.27827 19276 ft 418 kts 24°
2026-04-23 22:35 14.98507 -90.26549 19692 ft 421 kts 23°
2026-04-23 22:35 15.01169 -90.25266 20095 ft 424 kts 22°
2026-04-23 22:36 15.03859 -90.23969 20481 ft 428 kts 23°
2026-04-23 22:36 15.06570 -90.22661 20871 ft 432 kts 23°
2026-04-23 22:36 15.09302 -90.21344 21268 ft 435 kts 23°
2026-04-23 22:36 15.12050 -90.20017 21690 ft 437 kts 23°
2026-04-23 22:37 15.14814 -90.18681 22092 ft 440 kts 22°
2026-04-23 22:37 15.17597 -90.17337 22516 ft 442 kts 22°
2026-04-23 22:37 15.20396 -90.15985 22920 ft 446 kts 23°
2026-04-23 22:37 15.23216 -90.14621 23297 ft 449 kts 22°
2026-04-23 22:38 15.26023 -90.13263 23652 ft 452 kts 22°
2026-04-23 22:38 15.28880 -90.11880 23994 ft 455 kts 22°
2026-04-23 22:38 15.31743 -90.10493 24452 ft 453 kts 22°
2026-04-23 22:38 15.34607 -90.09104 24811 ft 456 kts 22°
2026-04-23 22:39 15.37491 -90.07713 25135 ft 458 kts 22°
2026-04-23 22:39 15.40393 -90.06311 25447 ft 461 kts 22°
2026-04-23 22:39 15.43310 -90.04898 25805 ft 464 kts 22°
2026-04-23 22:39 15.46246 -90.03474 26156 ft 466 kts 22°
2026-04-23 22:40 15.49189 -90.02045 26495 ft 469 kts 22°
2026-04-23 22:40 15.52151 -90.00607 26812 ft 471 kts 22°
2026-04-23 22:40 15.58134 -89.97702 27384 ft 478 kts 22°
2026-04-23 22:41 15.61150 -89.96212 27716 ft 481 kts 23°
2026-04-23 22:41 15.64138 -89.94619 28044 ft 484 kts 25°
2026-04-23 22:41 15.67112 -89.92955 28376 ft 486 kts 25°
2026-04-23 22:41 15.70044 -89.91282 28703 ft 489 kts 25°
2026-04-23 22:42 15.73035 -89.89570 29023 ft 491 kts 25°
2026-04-23 22:42 15.76037 -89.87858 29306 ft 494 kts 25°
2026-04-23 22:42 15.79058 -89.86143 29614 ft 495 kts 25°
2026-04-23 22:42 15.82093 -89.84424 29888 ft 498 kts 25°
2026-04-23 22:43 15.85139 -89.82706 30209 ft 498 kts 25°
2026-04-23 22:43 15.88196 -89.80985 30544 ft 499 kts 25°
2026-04-23 22:43 15.91241 -89.79272 30865 ft 499 kts 25°
2026-04-23 22:43 15.94300 -89.77552 31179 ft 499 kts 25°
2026-04-23 22:44 15.97356 -89.75835 31515 ft 499 kts 25°
2026-04-23 22:44 16.00418 -89.74130 31845 ft 500 kts 24°
2026-04-23 22:44 16.03493 -89.72429 32139 ft 501 kts 24°
2026-04-23 22:44 16.06570 -89.70731 32486 ft 501 kts 24°
2026-04-23 22:45 16.09649 -89.69032 32823 ft 501 kts 24°
2026-04-23 22:45 16.12729 -89.67332 33179 ft 501 kts 24°
2026-04-23 22:45 16.15806 -89.65631 33526 ft 501 kts 24°
2026-04-23 22:45 16.18886 -89.63927 33870 ft 501 kts 24°
2026-04-23 22:46 16.21925 -89.62244 34152 ft 502 kts 24°
2026-04-23 22:46 16.25008 -89.60536 34434 ft 502 kts 24°
2026-04-23 22:46 16.28089 -89.58827 34734 ft 502 kts 24°
2026-04-23 22:46 16.31170 -89.57118 35016 ft 502 kts 24°
2026-04-23 22:47 16.34247 -89.55410 35297 ft 502 kts 24°
2026-04-23 22:47 16.37333 -89.53697 35588 ft 502 kts 24°
2026-04-23 22:47 16.40416 -89.51986 35863 ft 502 kts 24°
2026-04-23 22:47 16.43494 -89.50276 36152 ft 502 kts 24°
2026-04-23 22:48 16.46573 -89.48566 36419 ft 502 kts 24°
2026-04-23 22:48 16.49656 -89.46853 36682 ft 502 kts 24°
2026-04-23 22:48 16.52741 -89.45137 36950 ft 501 kts 24°
2026-04-23 22:48 16.55816 -89.43427 37194 ft 502 kts 24°
2026-04-23 22:49 16.58899 -89.41712 37455 ft 501 kts 24°
2026-04-23 22:49 16.61974 -89.40000 37703 ft 501 kts 24°
2026-04-23 22:49 16.65013 -89.38309 37940 ft 501 kts 23°
2026-04-23 22:49 16.68087 -89.36597 38190 ft 501 kts 23°
2026-04-23 22:50 16.71166 -89.34882 38485 ft 501 kts 23°
2026-04-23 22:50 16.74233 -89.33176 38766 ft 498 kts 23°
2026-04-23 22:50 16.75957 -89.32221 38853 ft 499 kts 23°
2026-04-23 22:51 16.81102 -89.29378 38885 ft 499 kts 23°
2026-04-23 22:52 16.87239 -89.25988 38884 ft 499 kts 23°
2026-04-23 22:52 16.93335 -89.22618 38889 ft 499 kts 23°
2026-04-23 22:53 16.99477 -89.19217 38889 ft 500 kts 23°
2026-04-23 22:53 17.05632 -89.15806 38894 ft 500 kts 23°
2026-04-23 22:54 17.11768 -89.12370 38882 ft 499 kts 23°
2026-04-23 22:54 17.17878 -89.08925 38881 ft 499 kts 23°
2026-04-23 22:55 17.23989 -89.05478 38878 ft 499 kts 23°
2026-04-23 22:55 17.30099 -89.02033 38878 ft 499 kts 23°
2026-04-23 22:56 17.36212 -88.98585 38879 ft 499 kts 23°
2026-04-23 22:56 17.42323 -88.95136 38881 ft 499 kts 23°
2026-04-23 22:57 17.48402 -88.91702 38884 ft 499 kts 23°
2026-04-23 22:57 17.54512 -88.88247 38884 ft 499 kts 23°
2026-04-23 22:58 17.60627 -88.84788 38898 ft 499 kts 23°
2026-04-23 22:58 17.66751 -88.81321 38892 ft 500 kts 23°
2026-04-23 22:59 17.72885 -88.77845 38893 ft 501 kts 23°
2026-04-23 22:59 17.78961 -88.74397 38892 ft 499 kts 22°
2026-04-23 23:00 17.85056 -88.70936 38893 ft 497 kts 22°
2026-04-23 23:00 17.91145 -88.67478 38901 ft 497 kts 22°
2026-04-23 23:01 17.97233 -88.64018 38900 ft 497 kts 22°
2026-04-23 23:01 18.03315 -88.60558 38903 ft 497 kts 22°
2026-04-23 23:02 18.09403 -88.57092 38904 ft 497 kts 22°
2026-04-23 23:02 18.15445 -88.53649 38905 ft 497 kts 22°
2026-04-23 23:03 18.21531 -88.50179 38906 ft 497 kts 22°
2026-04-23 23:03 18.27610 -88.46709 38912 ft 497 kts 22°
2026-04-23 23:04 18.33717 -88.43222 38902 ft 500 kts 22°
2026-04-23 23:04 18.39836 -88.39724 38898 ft 500 kts 22°
2026-04-23 23:04 18.42893 -88.37975 40110 ft 500 kts 22°
2026-04-23 23:05 18.45953 -88.36228 39927 ft 502 kts 28°
2026-04-23 23:05 18.49032 -88.34466 39574 ft 504 kts 28°
2026-04-23 23:05 18.52046 -88.32526 39135 ft 509 kts 32°
2026-04-23 23:05 18.55032 -88.30493 39007 ft 510 kts 33°
2026-04-23 23:06 18.57952 -88.28472 38998 ft 508 kts 33°
2026-04-23 23:06 18.63814 -88.24359 38999 ft 504 kts 33°
2026-04-23 23:07 18.69617 -88.20270 39000 ft 500 kts 33°
2026-04-23 23:07 18.75449 -88.16163 39002 ft 507 kts 33°
2026-04-23 23:08 18.81360 -88.12002 39001 ft 514 kts 33°
2026-04-23 23:08 18.87327 -88.07801 38999 ft 514 kts 33°
2026-04-23 23:09 18.93247 -88.03630 38999 ft 509 kts 33°
2026-04-23 23:09 18.99074 -87.99520 37815 ft 504 kts 33°
2026-04-23 23:09 19.01981 -87.97467 38006 ft 499 kts 27°
2026-04-23 23:10 19.03885 -87.96121 38178 ft 496 kts 27°
2026-04-23 23:10 19.07715 -87.93413 38542 ft 494 kts 27°
2026-04-23 23:10 19.10575 -87.91392 38778 ft 493 kts 27°
2026-04-23 23:10 19.13434 -87.89372 38914 ft 496 kts 27°
2026-04-23 23:11 19.16314 -87.87339 38917 ft 500 kts 27°
2026-04-23 23:11 19.22123 -87.83233 38926 ft 502 kts 27°
2026-04-23 23:12 19.26946 -87.79814 38923 ft 502 kts 27°
2026-04-23 23:12 19.32747 -87.75699 38923 ft 502 kts 27°
2026-04-23 23:13 19.38546 -87.71583 38920 ft 502 kts 27°
2026-04-23 23:13 19.44310 -87.67490 38930 ft 502 kts 27°
2026-04-23 23:14 19.50127 -87.63357 38931 ft 504 kts 27°
2026-04-23 23:14 19.55947 -87.59217 38928 ft 504 kts 27°
2026-04-23 23:15 19.61775 -87.55065 38931 ft 504 kts 27°
2026-04-23 23:15 19.67598 -87.50907 38933 ft 504 kts 27°
2026-04-23 23:16 19.73423 -87.46743 38930 ft 504 kts 27°
2026-04-23 23:16 19.79243 -87.42582 38945 ft 505 kts 27°
2026-04-23 23:17 19.85081 -87.38410 38935 ft 507 kts 27°
2026-04-23 23:17 19.90929 -87.34226 38935 ft 507 kts 27°
2026-04-23 23:18 19.96781 -87.30034 38929 ft 507 kts 27°
2026-04-23 23:18 20.02597 -87.25864 38931 ft 508 kts 27°
2026-04-23 23:19 20.08453 -87.21662 38931 ft 508 kts 27°
2026-04-23 23:19 20.14309 -87.17456 38938 ft 508 kts 27°
2026-04-23 23:20 20.20174 -87.13242 38931 ft 509 kts 27°
2026-04-23 23:20 20.26045 -87.09020 38937 ft 509 kts 27°
2026-04-23 23:21 20.31914 -87.04794 38935 ft 509 kts 27°
2026-04-23 23:21 20.37783 -87.00565 38933 ft 509 kts 27°
2026-04-23 23:22 20.43655 -86.96330 38923 ft 509 kts 27°
2026-04-23 23:22 20.49642 -86.92509 38927 ft 497 kts 15°
2026-04-23 23:22 20.52877 -86.91317 38925 ft 486 kts
2026-04-23 23:23 20.56170 -86.90670 38924 ft 479 kts
2026-04-23 23:23 20.62769 -86.89854 38925 ft 477 kts 357°
2026-04-23 23:24 20.69376 -86.89228 38929 ft 476 kts 356°
2026-04-23 23:24 20.75940 -86.88601 38932 ft 477 kts 357°
2026-04-23 23:25 20.82545 -86.87938 38936 ft 477 kts 358°
2026-04-23 23:25 20.89145 -86.87257 38934 ft 476 kts 358°
2026-04-23 23:26 20.95749 -86.86573 38932 ft 476 kts 358°
2026-04-23 23:26 21.02351 -86.85801 38934 ft 481 kts
2026-04-23 23:27 21.08946 -86.84438 38934 ft 483 kts
2026-04-23 23:27 21.15540 -86.82944 38935 ft 484 kts
2026-04-23 23:28 21.22128 -86.81425 38937 ft 484 kts
2026-04-23 23:28 21.28711 -86.79915 38939 ft 484 kts
2026-04-23 23:29 21.35270 -86.78417 38937 ft 484 kts
2026-04-23 23:29 21.41864 -86.76913 38942 ft 484 kts
2026-04-23 23:30 21.48447 -86.75408 38943 ft 484 kts
2026-04-23 23:30 21.55032 -86.73901 38949 ft 484 kts
2026-04-23 23:31 21.61628 -86.72389 38949 ft 484 kts
2026-04-23 23:31 21.68170 -86.70888 38947 ft 484 kts
2026-04-23 23:32 21.74762 -86.69375 38945 ft 484 kts
2026-04-23 23:32 21.81357 -86.67859 38949 ft 485 kts
2026-04-23 23:33 21.87963 -86.66341 38949 ft 485 kts
2026-04-23 23:33 21.94569 -86.64820 38955 ft 485 kts
2026-04-23 23:34 22.01173 -86.63299 38958 ft 485 kts
2026-04-23 23:34 22.07778 -86.61776 38960 ft 485 kts
2026-04-23 23:35 22.14382 -86.60252 38965 ft 485 kts
2026-04-23 23:35 22.20970 -86.58730 38966 ft 484 kts
2026-04-23 23:36 22.27516 -86.57217 38953 ft 484 kts
2026-04-23 23:36 22.34108 -86.55692 38961 ft 484 kts
2026-04-23 23:37 22.40697 -86.54166 38961 ft 485 kts
2026-04-23 23:37 22.47289 -86.52638 38963 ft 483 kts
2026-04-23 23:38 22.53862 -86.51112 38963 ft 483 kts
2026-04-23 23:38 22.60428 -86.49588 38966 ft 483 kts
2026-04-23 23:39 22.66995 -86.48062 38972 ft 483 kts
2026-04-23 23:39 22.73561 -86.46535 38972 ft 483 kts
2026-04-23 23:40 22.80126 -86.45006 38972 ft 482 kts
2026-04-23 23:40 22.86685 -86.43475 38971 ft 482 kts
2026-04-23 23:41 22.93200 -86.41953 38971 ft 482 kts
2026-04-23 23:41 22.99760 -86.40419 38972 ft 482 kts
2026-04-23 23:42 23.06317 -86.38885 38971 ft 482 kts
2026-04-23 23:42 23.12869 -86.37350 38971 ft 481 kts
2026-04-23 23:43 23.19419 -86.35813 38972 ft 481 kts
2026-04-23 23:43 23.25960 -86.34278 38971 ft 481 kts
2026-04-23 23:44 23.32465 -86.32750 38971 ft 481 kts
2026-04-23 23:44 23.39008 -86.31212 38992 ft 481 kts
2026-04-23 23:45 23.45559 -86.29669 38974 ft 481 kts
2026-04-23 23:45 23.52100 -86.28128 38976 ft 481 kts
2026-04-23 23:46 23.58646 -86.26584 38976 ft 481 kts
2026-04-23 23:46 23.65187 -86.25040 38974 ft 481 kts
2026-04-23 23:47 23.71724 -86.23495 38999 ft 481 kts
2026-04-23 23:47 23.78255 -86.21949 38978 ft 479 kts
2026-04-23 23:48 23.84766 -86.20407 38976 ft 479 kts
2026-04-23 23:48 23.91236 -86.18874 38977 ft 479 kts
2026-04-23 23:49 24.01008 -86.16539 38981 ft 481 kts
2026-04-23 23:49 24.07302 -86.13789 38981 ft 492 kts 21°
2026-04-23 23:50 24.13343 -86.10201 38984 ft 494 kts 23°
2026-04-23 23:50 24.19321 -86.06457 38986 ft 495 kts 24°
2026-04-23 23:51 24.25294 -86.02709 38987 ft 495 kts 23°
2026-04-23 23:51 24.31279 -85.98978 38987 ft 495 kts 23°
2026-04-23 23:52 24.37270 -85.95254 38992 ft 494 kts 23°
2026-04-23 23:52 24.43255 -85.91534 38990 ft 494 kts 23°
2026-04-23 23:53 24.49235 -85.87813 38993 ft 494 kts 23°
2026-04-23 23:53 24.55215 -85.84086 38993 ft 494 kts 23°
2026-04-23 23:54 24.61157 -85.80379 38993 ft 494 kts 23°
2026-04-23 23:54 24.67138 -85.76642 38993 ft 494 kts 23°
2026-04-23 23:55 24.73115 -85.72905 38999 ft 494 kts 23°
2026-04-23 23:55 24.79093 -85.69162 38999 ft 494 kts 23°
2026-04-23 23:56 24.85073 -85.65415 38998 ft 494 kts 23°
2026-04-23 23:56 24.91053 -85.61663 38999 ft 494 kts 23°
2026-04-23 23:57 24.97038 -85.57906 39533 ft 495 kts 29°
2026-04-23 23:57 25.00044 -85.56019 39292 ft 499 kts 30°
2026-04-23 23:57 25.03070 -85.54115 39060 ft 502 kts 30°
2026-04-23 23:58 25.09127 -85.50298 38999 ft 499 kts 30°
2026-04-23 23:58 25.15135 -85.46510 38999 ft 496 kts 30°
2026-04-23 23:59 25.21056 -85.42772 38999 ft 492 kts 30°
2026-04-23 23:59 25.26986 -85.39025 38999 ft 489 kts 30°
2026-04-24 00:00 25.32982 -85.35557 38999 ft 485 kts 20°
2026-04-24 00:00 25.39529 -85.33937 38999 ft 482 kts
2026-04-24 00:01 25.46179 -85.33151 38999 ft 479 kts
2026-04-24 00:01 25.52800 -85.32526 39000 ft 476 kts
2026-04-24 00:02 25.59385 -85.31895 39000 ft 474 kts
2026-04-24 00:02 25.65936 -85.31235 38999 ft 471 kts
2026-04-24 00:03 25.72449 -85.30565 39000 ft 469 kts
2026-04-24 00:03 25.78930 -85.29895 39000 ft 467 kts
2026-04-24 00:04 25.85346 -85.29233 39000 ft 465 kts
2026-04-24 00:04 25.91770 -85.28570 39000 ft 463 kts
2026-04-24 00:05 25.98162 -85.27901 38999 ft 459 kts
2026-04-24 00:05 26.03466 -85.27346 39002 ft 464 kts
2026-04-24 00:06 26.09956 -85.26681 39001 ft 472 kts
2026-04-24 00:06 26.16482 -85.26012 38999 ft 470 kts
2026-04-24 00:07 26.22973 -85.25341 38999 ft 467 kts
2026-04-24 00:07 26.29431 -85.24671 39000 ft 465 kts
2026-04-24 00:08 26.35865 -85.23991 38999 ft 463 kts
2026-04-24 00:08 26.42089 -85.22195 39001 ft 463 kts 18°
2026-04-24 00:09 26.48192 -85.19813 39002 ft 472 kts 20°
2026-04-24 00:09 26.54408 -85.17256 39002 ft 480 kts 20°
2026-04-24 00:10 26.60730 -85.14655 39001 ft 488 kts 20°
2026-04-24 00:10 26.67169 -85.12026 39001 ft 496 kts 20°
2026-04-24 00:11 26.73704 -85.09365 39001 ft 504 kts 20°
2026-04-24 00:11 26.80304 -85.06677 38999 ft 503 kts 20°
2026-04-24 00:12 26.86857 -85.04003 38999 ft 499 kts 20°
2026-04-24 00:12 26.93359 -85.01345 38999 ft 495 kts 20°
2026-04-24 00:13 26.99777 -84.98719 39000 ft 492 kts 20°
2026-04-24 00:13 27.06195 -84.96090 38999 ft 489 kts 20°
2026-04-24 00:14 27.12560 -84.93479 39000 ft 486 kts 20°
2026-04-24 00:14 27.18962 -84.90850 39002 ft 493 kts 20°
2026-04-24 00:15 27.25469 -84.88175 39001 ft 501 kts 20°
2026-04-24 00:15 27.32027 -84.85475 39001 ft 509 kts 20°
2026-04-24 00:16 27.38690 -84.82729 38999 ft 508 kts 20°
2026-04-24 00:16 27.45138 -84.79584 38999 ft 504 kts 32°
2026-04-24 00:17 27.50302 -84.74363 38999 ft 499 kts 54°
2026-04-24 00:17 27.53593 -84.67514 39001 ft 500 kts 66°
2026-04-24 00:18 27.56344 -84.60244 39002 ft 508 kts 68°
2026-04-24 00:18 27.59036 -84.52870 38999 ft 507 kts 68°
2026-04-24 00:19 27.61744 -84.45561 38999 ft 503 kts 67°
2026-04-24 00:19 27.64459 -84.38320 38999 ft 499 kts 67°
2026-04-24 00:20 27.67138 -84.31189 38999 ft 495 kts 67°
2026-04-24 00:20 27.69814 -84.24056 38999 ft 492 kts 67°
2026-04-24 00:21 27.72447 -84.17016 39000 ft 488 kts 67°
2026-04-24 00:21 27.75076 -84.09974 38999 ft 485 kts 67°
2026-04-24 00:22 27.77689 -84.02960 38999 ft 482 kts 67°
2026-04-24 00:22 27.80279 -83.95995 38999 ft 480 kts 67°
2026-04-24 00:23 27.81569 -83.92523 38717 ft 480 kts 65°
2026-04-24 00:23 27.82859 -83.89045 38906 ft 480 kts 64°
2026-04-24 00:23 27.84132 -83.85613 39040 ft 482 kts 64°
2026-04-24 00:23 27.85367 -83.82283 39058 ft 486 kts 64°
2026-04-24 00:24 27.87231 -83.77253 39060 ft 494 kts 64°
2026-04-24 00:24 27.89894 -83.70050 39060 ft 505 kts 64°
2026-04-24 00:25 27.92628 -83.62636 39072 ft 515 kts 65°
2026-04-24 00:25 27.95368 -83.55183 39057 ft 512 kts 65°
2026-04-24 00:26 27.98554 -83.48045 39061 ft 505 kts 51°
2026-04-24 00:26 28.00801 -83.45025 39061 ft 500 kts 39°
2026-04-24 00:26 28.03469 -83.42559 39062 ft 492 kts 28°
2026-04-24 00:27 28.06453 -83.40746 39059 ft 483 kts 16°
2026-04-24 00:27 28.09617 -83.39529 39059 ft 479 kts 11°
2026-04-24 00:27 28.16047 -83.37594 39059 ft 478 kts
2026-04-24 00:28 28.22468 -83.35837 39073 ft 478 kts
2026-04-24 00:28 28.28924 -83.34038 39058 ft 477 kts
2026-04-24 00:29 28.35362 -83.32196 39058 ft 477 kts
2026-04-24 00:29 28.41802 -83.30336 39061 ft 477 kts
2026-04-24 00:30 28.48242 -83.28471 39061 ft 477 kts
2026-04-24 00:30 28.54677 -83.26607 39059 ft 477 kts 10°
2026-04-24 00:31 28.61060 -83.24757 39061 ft 476 kts 10°
2026-04-24 00:31 28.67478 -83.22895 39060 ft 476 kts 10°
2026-04-24 00:32 28.73906 -83.21028 39059 ft 476 kts 10°
2026-04-24 00:32 28.80331 -83.19159 39071 ft 476 kts 11°
2026-04-24 00:33 28.86742 -83.17292 39062 ft 475 kts 11°
2026-04-24 00:33 28.93138 -83.15426 39062 ft 474 kts 11°
2026-04-24 00:34 28.99552 -83.13554 39059 ft 477 kts 11°
2026-04-24 00:34 29.05946 -83.11685 39059 ft 477 kts 11°
2026-04-24 00:35 29.12376 -83.09803 39061 ft 476 kts 12°
2026-04-24 00:35 29.18787 -83.07922 39061 ft 475 kts 12°
2026-04-24 00:36 29.25192 -83.06042 39059 ft 475 kts 12°
2026-04-24 00:36 29.31589 -83.04162 39058 ft 475 kts 12°
2026-04-24 00:37 29.37988 -83.02280 39061 ft 474 kts 13°
2026-04-24 00:37 29.44359 -83.00403 39058 ft 470 kts 13°
2026-04-24 00:38 29.50690 -82.98534 39061 ft 470 kts 13°
2026-04-24 00:38 29.57019 -82.96665 39054 ft 470 kts 13°
2026-04-24 00:39 29.63357 -82.94790 39056 ft 470 kts 13°
2026-04-24 00:39 29.69676 -82.92918 39055 ft 468 kts 13°
2026-04-24 00:40 29.75940 -82.91060 39058 ft 467 kts 13°
2026-04-24 00:40 29.82240 -82.89190 39056 ft 467 kts 13°
2026-04-24 00:41 29.88537 -82.87318 39058 ft 467 kts 13°
2026-04-24 00:41 29.94840 -82.85441 39059 ft 467 kts 13°
2026-04-24 00:42 30.01132 -82.83565 39059 ft 466 kts 13°
2026-04-24 00:42 30.07412 -82.81690 39058 ft 466 kts 13°
2026-04-24 00:43 30.13701 -82.79811 39059 ft 466 kts 13°
2026-04-24 00:43 30.19935 -82.77945 39059 ft 466 kts 13°
2026-04-24 00:44 30.26220 -82.76061 39075 ft 467 kts 13°
2026-04-24 00:44 30.32513 -82.74173 39089 ft 467 kts 13°
2026-04-24 00:45 30.38814 -82.72280 39088 ft 467 kts 13°
2026-04-24 00:45 30.45109 -82.70386 39123 ft 467 kts 13°
2026-04-24 00:46 30.51357 -82.68320 39125 ft 468 kts 19°
2026-04-24 00:46 30.57451 -82.65633 39120 ft 468 kts 20°
2026-04-24 00:47 30.63503 -82.62826 39125 ft 468 kts 20°
2026-04-24 00:47 30.69510 -82.60011 39123 ft 468 kts 20°
2026-04-24 00:48 30.75556 -82.57185 39291 ft 468 kts 21°
2026-04-24 00:48 30.78591 -82.55768 39089 ft 472 kts 21°
2026-04-24 00:48 30.81599 -82.54364 39001 ft 474 kts 21°
2026-04-24 00:49 30.87726 -82.51504 38999 ft 473 kts 21°
2026-04-24 00:49 30.93835 -82.48649 38999 ft 472 kts 21°
2026-04-24 00:50 30.99919 -82.45800 38999 ft 470 kts 21°
2026-04-24 00:50 31.05979 -82.42959 38999 ft 468 kts 22°
2026-04-24 00:51 31.11936 -82.40162 39000 ft 468 kts 22°
2026-04-24 00:51 31.17972 -82.37324 38999 ft 467 kts 22°
2026-04-24 00:52 31.23988 -82.34493 39000 ft 465 kts 22°
2026-04-24 00:52 31.27895 -82.32651 39000 ft 465 kts 22°
2026-04-24 00:53 31.33474 -82.30018 39003 ft 468 kts 21°
2026-04-24 00:53 31.39517 -82.27163 39306 ft 465 kts 21°
2026-04-24 00:54 31.45492 -82.24361 39033 ft 467 kts 21°
2026-04-24 00:54 31.51527 -82.21555 38999 ft 466 kts 21°
2026-04-24 00:55 31.57515 -82.18771 39001 ft 468 kts 21°
2026-04-24 00:55 31.63621 -82.15923 39001 ft 474 kts 21°
2026-04-24 00:56 31.69637 -82.13009 38998 ft 475 kts 22°
2026-04-24 00:56 31.74739 -82.10495 39002 ft 478 kts 22°
2026-04-24 00:57 31.81819 -82.07064 39006 ft 475 kts 22°
2026-04-24 00:58 31.90981 -82.02681 39000 ft 472 kts 22°
2026-04-24 00:58 31.96037 -82.00264 39000 ft 471 kts 22°
2026-04-24 00:59 32.02102 -81.97359 39000 ft 470 kts 22°
2026-04-24 00:59 32.07210 -81.94907 39000 ft 469 kts 22°
2026-04-24 01:00 32.10931 -81.93119 39005 ft 469 kts 22°
2026-04-24 01:00 32.13887 -81.91694 39005 ft 472 kts 22°
2026-04-24 01:01 32.19813 -81.88443 39001 ft 475 kts 26°
2026-04-24 01:01 32.25710 -81.84919 38996 ft 475 kts 27°
2026-04-24 01:02 32.31560 -81.81413 39000 ft 474 kts 26°
2026-04-24 01:02 32.37458 -81.77919 39006 ft 474 kts 26°
2026-04-24 01:03 32.43365 -81.74437 38996 ft 474 kts 26°
2026-04-24 01:03 32.49270 -81.70957 39001 ft 474 kts 26°
2026-04-24 01:04 32.55177 -81.67468 39002 ft 474 kts 26°
2026-04-24 01:04 32.61081 -81.63975 38998 ft 474 kts 26°
2026-04-24 01:05 32.66981 -81.60477 39002 ft 474 kts 26°
2026-04-24 01:05 32.72882 -81.56975 39004 ft 474 kts 26°
2026-04-24 01:06 32.78784 -81.53467 38996 ft 474 kts 26°
2026-04-24 01:06 32.84637 -81.49982 39001 ft 474 kts 26°
2026-04-24 01:07 32.90538 -81.46464 38995 ft 474 kts 26°
2026-04-24 01:07 32.96431 -81.42945 39008 ft 474 kts 26°
2026-04-24 01:08 33.02327 -81.39420 38999 ft 474 kts 26°
2026-04-24 01:08 33.08224 -81.35888 39001 ft 474 kts 26°
2026-04-24 01:09 33.14086 -81.32372 39003 ft 474 kts 26°
2026-04-24 01:09 33.19981 -81.28831 39001 ft 474 kts 26°
2026-04-24 01:10 33.25871 -81.25287 39000 ft 474 kts 26°
2026-04-24 01:10 33.31764 -81.21737 38997 ft 474 kts 26°
2026-04-24 01:11 33.37654 -81.18182 39000 ft 474 kts 26°
2026-04-24 01:11 33.43550 -81.14619 38994 ft 474 kts 26°
2026-04-24 01:12 33.49439 -81.11055 38995 ft 474 kts 26°
2026-04-24 01:12 33.55329 -81.07484 39003 ft 474 kts 26°
2026-04-24 01:13 33.61220 -81.03907 39005 ft 474 kts 26°
2026-04-24 01:13 33.67108 -81.00327 39004 ft 474 kts 26°
2026-04-24 01:14 33.72996 -80.96741 38995 ft 474 kts 26°
2026-04-24 01:14 33.78882 -80.93150 38998 ft 474 kts 27°
2026-04-24 01:15 33.84677 -80.89464 38997 ft 474 kts 32°
2026-04-24 01:15 33.90028 -80.84831 39005 ft 474 kts 37°
2026-04-24 01:16 33.95250 -80.79972 38998 ft 474 kts 38°
2026-04-24 01:16 34.00452 -80.75055 38999 ft 475 kts 38°
2026-04-24 01:17 34.05650 -80.70144 39007 ft 475 kts 38°
2026-04-24 01:17 34.10856 -80.65234 38998 ft 475 kts 38°
2026-04-24 01:18 34.16054 -80.60330 39006 ft 474 kts 38°
2026-04-24 01:18 34.21222 -80.55448 39008 ft 474 kts 38°
2026-04-24 01:19 34.26422 -80.50537 38996 ft 474 kts 37°
2026-04-24 01:19 34.31664 -80.45682 39010 ft 475 kts 37°
2026-04-24 01:20 34.36923 -80.40849 38999 ft 475 kts 37°
2026-04-24 01:20 34.42178 -80.36007 38995 ft 475 kts 37°
2026-04-24 01:21 34.47427 -80.31154 38995 ft 475 kts 37°
2026-04-24 01:21 34.52670 -80.26294 38995 ft 475 kts 37°
2026-04-24 01:22 34.57917 -80.21422 39003 ft 475 kts 37°
2026-04-24 01:22 34.63163 -80.16544 39000 ft 475 kts 37°
2026-04-24 01:23 34.68370 -80.11694 38995 ft 475 kts 37°
2026-04-24 01:23 34.73613 -80.06812 39001 ft 475 kts 37°
2026-04-24 01:24 34.78856 -80.01932 38999 ft 475 kts 37°
2026-04-24 01:24 34.84111 -79.97178 39002 ft 475 kts 35°
2026-04-24 01:25 34.89546 -79.92526 39006 ft 477 kts 34°
2026-04-24 01:25 34.94978 -79.87902 38996 ft 476 kts 34°
2026-04-24 01:26 35.00392 -79.83261 39002 ft 475 kts 35°
2026-04-24 01:26 35.05795 -79.78601 38996 ft 476 kts 35°
2026-04-24 01:27 35.11201 -79.73926 39006 ft 476 kts 35°
2026-04-24 01:27 35.16567 -79.69278 38999 ft 476 kts 35°
2026-04-24 01:28 35.21973 -79.64589 38995 ft 476 kts 35°
2026-04-24 01:28 35.27378 -79.59894 39003 ft 476 kts 35°
2026-04-24 01:29 35.32779 -79.55193 38996 ft 476 kts 35°
2026-04-24 01:29 35.38177 -79.50488 38997 ft 476 kts 35°
2026-04-24 01:30 35.43571 -79.45778 38995 ft 476 kts 35°
2026-04-24 01:30 35.48961 -79.41065 38996 ft 476 kts 35°
2026-04-24 01:31 35.54352 -79.36342 39002 ft 476 kts 35°
2026-04-24 01:31 35.59738 -79.31615 39003 ft 476 kts 35°
2026-04-24 01:32 35.65127 -79.26878 38995 ft 476 kts 35°
2026-04-24 01:32 35.70480 -79.22165 38995 ft 476 kts 35°
2026-04-24 01:33 35.75878 -79.17448 38998 ft 476 kts 34°
2026-04-24 01:33 35.81384 -79.12906 38994 ft 476 kts 33°
2026-04-24 01:34 35.86915 -79.08422 38997 ft 476 kts 33°
2026-04-24 01:34 35.92447 -79.03913 38997 ft 476 kts 33°
2026-04-24 01:35 35.97966 -78.99386 38999 ft 476 kts 33°
2026-04-24 01:35 36.03472 -78.94851 38996 ft 476 kts 33°
2026-04-24 01:36 36.08981 -78.90307 38999 ft 476 kts 33°
2026-04-24 01:36 36.14453 -78.85786 39000 ft 476 kts 33°
2026-04-24 01:37 36.19960 -78.81239 38997 ft 476 kts 32°
2026-04-24 01:37 36.25608 -78.76964 38997 ft 476 kts 30°
2026-04-24 01:38 36.31340 -78.72859 39003 ft 476 kts 30°
2026-04-24 01:38 36.37073 -78.68742 39003 ft 476 kts 30°
2026-04-24 01:39 36.42787 -78.64592 38999 ft 476 kts 30°
2026-04-24 01:39 36.48501 -78.60417 38998 ft 476 kts 30°
2026-04-24 01:40 36.54207 -78.56236 38994 ft 476 kts 30°
2026-04-24 01:40 36.59906 -78.52054 39009 ft 476 kts 30°
2026-04-24 01:41 36.65603 -78.47868 38998 ft 476 kts 30°
2026-04-24 01:41 36.71302 -78.43673 39006 ft 476 kts 30°
2026-04-24 01:42 36.76962 -78.39500 39006 ft 476 kts 30°
2026-04-24 01:42 36.82666 -78.35287 39003 ft 476 kts 30°
2026-04-24 01:43 36.88365 -78.31070 38994 ft 476 kts 30°
2026-04-24 01:43 36.94058 -78.26851 38997 ft 476 kts 30°
2026-04-24 01:44 36.99750 -78.22624 39000 ft 476 kts 30°
2026-04-24 01:44 37.05443 -78.18389 38997 ft 476 kts 30°
2026-04-24 01:45 37.11095 -78.14178 39008 ft 476 kts 30°
2026-04-24 01:45 37.16787 -78.09930 38994 ft 476 kts 30°
2026-04-24 01:46 37.22474 -78.05677 38999 ft 476 kts 30°
2026-04-24 01:46 37.28157 -78.01420 39001 ft 476 kts 30°
2026-04-24 01:47 37.33841 -77.97155 39005 ft 476 kts 30°
2026-04-24 01:47 37.39518 -77.92887 38996 ft 476 kts 30°
2026-04-24 01:48 37.45193 -77.88613 38999 ft 475 kts 30°
2026-04-24 01:48 37.50860 -77.84317 38998 ft 475 kts 33°
2026-04-24 01:49 37.55174 -77.80021 39007 ft 476 kts 41°
2026-04-24 01:49 37.60853 -77.73465 39000 ft 476 kts 43°
2026-04-24 01:50 37.65664 -77.67724 38999 ft 476 kts 43°
2026-04-24 01:50 37.69691 -77.62909 38996 ft 476 kts 43°
2026-04-24 01:51 37.74508 -77.57165 38997 ft 476 kts 43°
2026-04-24 01:51 37.79327 -77.51421 38996 ft 476 kts 43°
2026-04-24 01:52 37.84114 -77.45709 39006 ft 476 kts 43°
2026-04-24 01:52 37.88924 -77.39958 38996 ft 476 kts 43°
2026-04-24 01:53 37.93731 -77.34198 39006 ft 476 kts 43°
2026-04-24 01:53 37.98539 -77.28426 39007 ft 476 kts 43°
2026-04-24 01:54 38.03339 -77.22652 38996 ft 476 kts 43°
2026-04-24 01:54 38.08142 -77.16865 38998 ft 476 kts 43°
2026-04-24 01:55 38.12939 -77.11073 39008 ft 476 kts 43°
2026-04-24 01:55 38.17733 -77.05274 38997 ft 476 kts 43°
2026-04-24 01:56 38.22524 -76.99467 39000 ft 476 kts 43°
2026-04-24 01:56 38.27315 -76.93650 38999 ft 476 kts 43°
2026-04-24 01:57 38.32100 -76.87828 39009 ft 476 kts 43°
2026-04-24 01:57 38.36851 -76.82038 38998 ft 476 kts 43°
2026-04-24 01:58 38.41627 -76.76205 39000 ft 476 kts 43°
2026-04-24 01:58 38.46403 -76.70361 39001 ft 476 kts 43°
2026-04-24 01:59 38.51181 -76.64503 38998 ft 476 kts 43°
2026-04-24 01:59 38.55954 -76.58641 38999 ft 476 kts 43°
2026-04-24 02:00 38.60721 -76.52774 39000 ft 476 kts 44°
2026-04-24 02:00 38.65486 -76.46897 39008 ft 476 kts 44°
2026-04-24 02:01 38.70250 -76.41011 39004 ft 476 kts 44°
2026-04-24 02:01 38.75006 -76.35123 38999 ft 476 kts 44°
2026-04-24 02:02 38.79727 -76.29267 39000 ft 476 kts 44°
2026-04-24 02:02 38.84478 -76.23362 39011 ft 476 kts 44°
2026-04-24 02:03 38.91596 -76.14495 39003 ft 476 kts 44°
2026-04-24 02:03 38.96339 -76.08570 38999 ft 476 kts 44°
2026-04-24 02:04 39.01086 -76.02631 38996 ft 476 kts 44°
2026-04-24 02:04 39.05830 -75.96682 39008 ft 476 kts 44°
2026-04-24 02:05 39.10565 -75.90733 38998 ft 476 kts 44°
2026-04-24 02:05 39.15264 -75.84818 39002 ft 476 kts 44°
2026-04-24 02:06 39.19995 -75.78851 38999 ft 476 kts 44°
2026-04-24 02:06 39.24722 -75.72877 38996 ft 476 kts 44°
2026-04-24 02:07 39.29445 -75.66894 38998 ft 476 kts 44°
2026-04-24 02:07 39.34165 -75.60905 38996 ft 476 kts 44°
2026-04-24 02:08 39.38885 -75.54905 38996 ft 476 kts 44°
2026-04-24 02:08 39.43604 -75.48893 39000 ft 476 kts 44°
2026-04-24 02:09 39.48318 -75.42874 38999 ft 476 kts 44°
2026-04-24 02:09 39.52994 -75.36892 38999 ft 476 kts 44°
2026-04-24 02:10 39.57699 -75.30861 38999 ft 476 kts 44°
2026-04-24 02:10 39.62400 -75.24823 38996 ft 476 kts 44°
2026-04-24 02:11 39.67103 -75.18772 38998 ft 476 kts 44°
2026-04-24 02:11 39.71801 -75.12713 38996 ft 476 kts 44°
2026-04-24 02:12 39.76495 -75.06647 39002 ft 476 kts 44°
2026-04-24 02:12 39.81188 -75.00572 39001 ft 476 kts 44°
2026-04-24 02:13 39.85879 -74.94486 38999 ft 476 kts 44°
2026-04-24 02:13 39.90565 -74.88392 39000 ft 476 kts 45°
2026-04-24 02:14 39.95214 -74.82336 39006 ft 476 kts 45°
2026-04-24 02:14 39.99888 -74.76234 39004 ft 476 kts 45°
2026-04-24 02:15 40.04561 -74.70122 39000 ft 476 kts 45°
2026-04-24 02:15 40.09233 -74.63999 38996 ft 476 kts 45°
2026-04-24 02:16 40.13900 -74.57869 39004 ft 476 kts 45°
2026-04-24 02:16 40.18569 -74.51725 39001 ft 476 kts 45°
2026-04-24 02:17 40.23538 -74.46010 39000 ft 475 kts 39°
2026-04-24 02:17 40.28643 -74.40509 39004 ft 476 kts 39°
2026-04-24 02:18 40.33783 -74.35031 38996 ft 476 kts 39°
2026-04-24 02:18 40.38912 -74.29552 39003 ft 475 kts 39°
2026-04-24 02:19 40.44032 -74.24058 38998 ft 476 kts 39°
2026-04-24 02:19 40.49144 -74.18555 38998 ft 475 kts 39°
2026-04-24 02:20 40.54227 -74.13073 39003 ft 475 kts 39°
2026-04-24 02:20 40.59335 -74.07552 38996 ft 475 kts 39°
2026-04-24 02:21 40.64444 -74.02019 39000 ft 475 kts 39°
2026-04-24 02:21 40.69549 -73.96479 38999 ft 475 kts 39°
2026-04-24 02:22 40.74651 -73.90931 39003 ft 475 kts 39°
2026-04-24 02:22 40.79752 -73.85373 39003 ft 475 kts 39°
2026-04-24 02:23 40.85089 -73.80253 39003 ft 474 kts 28°
2026-04-24 02:23 40.91264 -73.77340 39000 ft 473 kts 11°
2026-04-24 02:24 40.97745 -73.75831 39000 ft 473 kts
2026-04-24 02:24 41.04220 -73.74594 38997 ft 474 kts
2026-04-24 02:25 41.10756 -73.73349 39000 ft 474 kts
2026-04-24 02:25 41.17286 -73.72062 38999 ft 474 kts
2026-04-24 02:26 41.23822 -73.70749 39005 ft 474 kts
2026-04-24 02:26 41.30345 -73.69432 39000 ft 474 kts
2026-04-24 02:27 41.36878 -73.68112 38992 ft 474 kts
2026-04-24 02:27 41.43400 -73.66792 38993 ft 474 kts
2026-04-24 02:28 41.49933 -73.65468 39005 ft 475 kts
2026-04-24 02:28 41.56427 -73.64149 39004 ft 475 kts
2026-04-24 02:29 41.62970 -73.62817 38999 ft 476 kts
2026-04-24 02:29 41.69512 -73.61483 38997 ft 476 kts
2026-04-24 02:30 41.76055 -73.60146 39005 ft 475 kts
2026-04-24 02:30 41.82596 -73.58807 39000 ft 476 kts
2026-04-24 02:31 41.89137 -73.57464 39000 ft 476 kts
2026-04-24 02:31 41.95687 -73.56117 39000 ft 476 kts
2026-04-24 02:32 42.02238 -73.54768 39000 ft 476 kts
2026-04-24 02:32 42.08744 -73.53425 38999 ft 475 kts
2026-04-24 02:33 42.15276 -73.52074 39001 ft 475 kts
2026-04-24 02:33 42.21806 -73.50720 39003 ft 475 kts
2026-04-24 02:34 42.28341 -73.49363 38999 ft 475 kts
2026-04-24 02:34 42.34884 -73.48000 39003 ft 476 kts
2026-04-24 02:35 42.41433 -73.46634 39001 ft 476 kts
2026-04-24 02:35 42.47983 -73.45264 39002 ft 476 kts
2026-04-24 02:36 42.54484 -73.43902 38999 ft 475 kts
2026-04-24 02:36 42.61037 -73.42526 39000 ft 476 kts
2026-04-24 02:37 42.67595 -73.41146 39003 ft 477 kts
2026-04-24 02:37 42.74160 -73.39762 39001 ft 477 kts
2026-04-24 02:38 42.80717 -73.38376 39001 ft 477 kts
2026-04-24 02:38 42.86162 -73.37223 38997 ft 476 kts
2026-04-24 02:39 42.93769 -73.35609 39000 ft 475 kts
2026-04-24 02:39 43.00320 -73.34679 38999 ft 474 kts 359°
2026-04-24 02:40 43.05847 -73.34937 38997 ft 474 kts 356°
2026-04-24 02:40 43.12385 -73.35494 38994 ft 474 kts 355°
2026-04-24 02:41 43.18974 -73.36122 39000 ft 474 kts 355°
2026-04-24 02:41 43.25547 -73.36736 39001 ft 474 kts 355°
2026-04-24 02:42 43.32134 -73.37334 39000 ft 474 kts 355°
2026-04-24 02:42 43.38716 -73.37927 39001 ft 474 kts 355°
2026-04-24 02:43 43.45298 -73.38521 39004 ft 473 kts 355°
2026-04-24 02:43 43.51870 -73.39116 38979 ft 473 kts 355°
2026-04-24 02:44 43.55151 -73.39413 38745 ft 472 kts 355°
2026-04-24 02:44 43.58425 -73.39711 38506 ft 469 kts 355°
2026-04-24 02:44 43.61610 -73.40000 38257 ft 462 kts 355°
2026-04-24 02:44 43.64808 -73.40291 37799 ft 460 kts 355°
2026-04-24 02:45 43.68003 -73.40582 37251 ft 460 kts 355°
2026-04-24 02:45 43.71192 -73.40891 36721 ft 460 kts 355°
2026-04-24 02:45 43.74378 -73.41244 36178 ft 459 kts 355°
2026-04-24 02:45 43.77558 -73.41606 35615 ft 459 kts 355°
2026-04-24 02:46 43.80748 -73.41971 35040 ft 459 kts 355°
2026-04-24 02:46 43.83930 -73.42334 34412 ft 459 kts 355°
2026-04-24 02:46 43.87074 -73.42692 33699 ft 461 kts 355°
2026-04-24 02:46 43.90300 -73.43061 32830 ft 472 kts 355°
2026-04-24 02:47 43.93554 -73.43432 31947 ft 490 kts 355°
2026-04-24 02:47 43.96960 -73.43821 30989 ft 492 kts 355°
2026-04-24 02:47 44.00335 -73.44206 30026 ft 494 kts 355°
2026-04-24 02:47 44.03743 -73.44595 29389 ft 488 kts 355°
2026-04-24 02:48 44.07099 -73.44979 28774 ft 481 kts 355°
2026-04-24 02:48 44.10424 -73.45359 28138 ft 475 kts 355°
2026-04-24 02:48 44.13700 -73.45735 27507 ft 469 kts 355°
2026-04-24 02:48 44.16930 -73.46106 26887 ft 463 kts 355°
2026-04-24 02:49 44.20125 -73.46473 26257 ft 457 kts 355°
2026-04-24 02:49 44.23275 -73.46836 25625 ft 452 kts 355°
2026-04-24 02:49 44.26390 -73.47195 25020 ft 446 kts 355°
2026-04-24 02:49 44.29463 -73.47549 24402 ft 441 kts 355°
2026-04-24 02:50 44.32508 -73.47901 23783 ft 436 kts 355°
2026-04-24 02:50 44.35475 -73.48244 23190 ft 431 kts 355°
2026-04-24 02:50 44.38444 -73.48587 22580 ft 426 kts 355°
2026-04-24 02:50 44.41385 -73.48928 21980 ft 421 kts 354°
2026-04-24 02:51 44.44291 -73.49264 21387 ft 417 kts 354°
2026-04-24 02:51 44.47168 -73.49598 20793 ft 412 kts 354°
2026-04-24 02:51 44.50012 -73.49929 20219 ft 408 kts 354°
2026-04-24 02:51 44.52827 -73.50256 19644 ft 404 kts 354°
2026-04-24 02:52 44.55609 -73.50580 19066 ft 399 kts 354°
2026-04-24 02:52 44.58362 -73.50901 18520 ft 395 kts 354°
2026-04-24 02:52 44.61089 -73.51219 17962 ft 391 kts 354°
2026-04-24 02:52 44.63786 -73.51534 17422 ft 387 kts 354°
2026-04-24 02:53 44.66455 -73.51846 16862 ft 383 kts 354°
2026-04-24 02:53 44.69097 -73.52155 16322 ft 379 kts 354°
2026-04-24 02:53 44.71711 -73.52463 15777 ft 375 kts 354°
2026-04-24 02:53 44.74298 -73.52770 15227 ft 372 kts 354°
2026-04-24 02:54 44.76871 -73.53076 14656 ft 369 kts 354°
2026-04-24 02:54 44.79420 -73.53380 14120 ft 365 kts 354°
2026-04-24 02:54 44.81935 -73.53679 13595 ft 361 kts 354°
2026-04-24 02:54 44.84423 -73.53976 13068 ft 357 kts 354°
2026-04-24 02:55 44.86884 -73.54260 12554 ft 353 kts 355°
2026-04-24 02:55 44.89306 -73.54527 12036 ft 350 kts 355°
2026-04-24 02:55 44.91717 -73.54792 11529 ft 346 kts 355°
2026-04-24 02:55 44.94104 -73.55054 11058 ft 342 kts 355°
2026-04-24 02:56 44.96378 -73.55303 10923 ft 325 kts 355°
2026-04-24 02:56 44.98614 -73.55549 10855 ft 308 kts 355°
2026-04-24 02:56 45.00705 -73.55778 10723 ft 295 kts 355°
2026-04-24 02:56 45.02710 -73.56000 10596 ft 284 kts 354°
2026-04-24 02:57 45.04648 -73.56214 10467 ft 275 kts 354°
2026-04-24 02:57 45.06530 -73.56422 10319 ft 268 kts 354°
2026-04-24 02:57 45.08392 -73.56628 9984 ft 268 kts 354°
2026-04-24 02:57 45.10250 -73.56834 9661 ft 268 kts 354°
2026-04-24 02:58 45.12080 -73.57036 9358 ft 266 kts 354°
2026-04-24 02:58 45.13923 -73.57239 9060 ft 265 kts 354°
2026-04-24 02:58 45.15758 -73.57441 8754 ft 264 kts 354°
2026-04-24 02:58 45.17588 -73.57643 8445 ft 263 kts 354°
2026-04-24 02:59 45.19397 -73.57843 8252 ft 256 kts 354°
2026-04-24 02:59 45.21139 -73.58035 8174 ft 248 kts 354°
2026-04-24 02:59 45.22857 -73.58225 8073 ft 248 kts 354°
2026-04-24 02:59 45.24573 -73.58416 7881 ft 248 kts 354°
2026-04-24 03:00 45.26271 -73.58604 7594 ft 246 kts 354°
2026-04-24 03:00 45.27974 -73.58830 7331 ft 245 kts 349°
2026-04-24 03:00 45.29546 -73.59667 7064 ft 242 kts 324°
2026-04-24 03:00 45.30781 -73.61309 6811 ft 243 kts 311°
2026-04-24 03:01 45.31868 -73.63128 6551 ft 240 kts 309°
2026-04-24 03:01 45.32912 -73.64931 6303 ft 239 kts 309°
2026-04-24 03:01 45.33964 -73.66751 6049 ft 238 kts 308°
2026-04-24 03:01 45.34794 -73.68762 5812 ft 236 kts 288°
2026-04-24 03:02 45.34925 -73.71051 5560 ft 234 kts 259°
2026-04-24 03:02 45.34239 -73.73122 5314 ft 234 kts 231°
2026-04-24 03:02 45.33115 -73.74760 5162 ft 228 kts 223°
2026-04-24 03:02 45.31950 -73.76247 4966 ft 223 kts 222°
2026-04-24 03:03 45.30793 -73.77710 4749 ft 222 kts 223°
2026-04-24 03:03 45.29644 -73.79176 4476 ft 222 kts 223°
2026-04-24 03:03 45.28502 -73.80647 4222 ft 221 kts 223°
2026-04-24 03:03 45.27369 -73.82114 3963 ft 220 kts 223°
2026-04-24 03:04 45.26239 -73.83581 3842 ft 220 kts 223°
2026-04-24 03:04 45.25155 -73.85101 3815 ft 216 kts 232°
2026-04-24 03:04 45.24451 -73.86878 3775 ft 201 kts 252°
2026-04-24 03:04 45.24319 -73.88809 3736 ft 197 kts 278°
2026-04-24 03:05 45.24833 -73.90582 3626 ft 197 kts 307°
2026-04-24 03:05 45.25850 -73.91880 3512 ft 197 kts 323°
2026-04-24 03:05 45.26950 -73.92965 3374 ft 189 kts 325°
2026-04-24 03:05 45.28032 -73.94007 3249 ft 187 kts 324°
2026-04-24 03:06 45.29104 -73.95049 3118 ft 186 kts 326°
2026-04-24 03:06 45.30316 -73.95621 2979 ft 189 kts
2026-04-24 03:06 45.31574 -73.95102 2861 ft 189 kts 25°
2026-04-24 03:06 45.32663 -73.94051 2753 ft 190 kts 40°
2026-04-24 03:07 45.33628 -73.92797 2742 ft 190 kts 42°
2026-04-24 03:07 45.34601 -73.91521 2748 ft 190 kts 41°
2026-04-24 03:07 45.35575 -73.90252 2739 ft 188 kts 41°
2026-04-24 03:07 45.36514 -73.89036 2645 ft 179 kts 41°
2026-04-24 03:08 45.37433 -73.87847 2459 ft 178 kts 41°
2026-04-24 03:08 45.39202 -73.85536 1962 ft 163 kts 41°
2026-04-24 03:08 45.40008 -73.84482 1740 ft 153 kts 41°
2026-04-24 03:09 45.40781 -73.83472 1558 ft 150 kts 41°
2026-04-24 03:09 45.41542 -73.82476 1360 ft 147 kts 41°
2026-04-24 03:09 45.42293 -73.81494 1164 ft 146 kts 41°
2026-04-24 03:09 45.43041 -73.80515 983 ft 145 kts 41°
2026-04-24 03:10 45.43785 -73.79543 786 ft 145 kts 40°
2026-04-24 03:10 45.44532 -73.78585 575 ft 144 kts 41°
2026-04-24 03:10 45.45264 -73.77611 384 ft 144 kts 42°
2026-04-24 03:10 45.46003 -73.76653 167 ft 143 kts 42°
2026-04-24 03:11 45.46702 -73.75727 110 ft 127 kts 42°
2026-04-24 03:11 45.47212 -73.75059 114 ft 71 kts 42°
2026-04-24 03:11 45.47416 -73.74790 113 ft 50 kts 43°
2026-04-24 03:11 45.47568 -73.74592 112 ft 48 kts 43°
2026-04-24 03:12 45.47723 -73.74342 112 ft 18 kts 63°
2026-04-24 03:12 45.47769 -73.74174 111 ft 19 kts 72°
2026-04-24 03:12 45.47792 -73.74012 112 ft 8 kts 105°
2026-04-24 03:12 45.47748 -73.73980 112 ft 11 kts 192°
2026-04-24 03:13 45.47668 -73.74068 111 ft 20 kts 223°
2026-04-24 03:13 45.47561 -73.74211 113 ft 23 kts 223°
2026-04-24 03:13 45.47429 -73.74383 114 ft 27 kts 223°
2026-04-24 03:13 45.47289 -73.74567 114 ft 28 kts 223°
2026-04-24 03:14 45.47141 -73.74762 112 ft 30 kts 222°
2026-04-24 03:14 45.46979 -73.74973 111 ft 32 kts 223°
2026-04-24 03:14 45.46809 -73.75196 108 ft 34 kts 223°
2026-04-24 03:14 45.46627 -73.75433 109 ft 36 kts 222°
2026-04-24 03:15 45.46468 -73.75641 106 ft 25 kts 220°
2026-04-24 03:15 45.46301 -73.75728 108 ft 26 kts 184°
2026-04-24 03:15 45.46155 -73.75725 106 ft 12 kts 176°
2026-04-24 03:15 45.46084 -73.75732 107 ft 9 kts 193°
2026-04-24 03:16 45.46024 -73.75739 108 ft 8 kts 180°
2026-04-24 03:16 45.45990 -73.75738 109 ft 2 kts 178°
2026-04-24 03:16 45.45984 -73.75738 109 ft 0 kts 178°